New Paris, IN

5:44 AM EST on February 22, 2017 (GMT -0500)
Goshen Municipal

Weather History for KGSH - January, 2013

Change the Weather History Date:

Monday, January 7, 2013

  Actual Average Record
Temperature  
Mean Temperature 27 °F -  
Max Temperature 35 °F 30 °F 64 °F (2008)
Min Temperature 19 °F 17 °F -14 °F (1970)
Degree Days  
Heating Degree Days 38    
Moisture  
Dew Point 20 °F    
Average Humidity 79    
Maximum Humidity 89    
Minimum Humidity 61    
Precipitation  
Precipitation 0.00 in - - ()
Sea Level Pressure  
Sea Level Pressure 30.32 in    
Wind  
Wind Speed 8 mph (SSW)    
Max Wind Speed 21 mph    
Max Gust Speed 26 mph    
Visibility 5 miles    
Events      
Averages and records for this station are not official NWS values.
T = Trace of Precipitation, MM = Missing Value Source: NWS Daily Summary

Daily Weather History Graph

Daily Weather History Graph

Search for Another Location

Airport or City:

Trip Planner

Search our weather history database for the weather conditions in past years. The results will help you decide how hot, cold, wet, or windy it might be!

Date:

Astronomy

Jan. 07, 2013 Rise Set
Actual Time 8:09 AM EST 5:29 PM EST
Civil Twilight 7:38 AM EST 6:00 PM EST
Nautical Twilight 7:04 AM EST 6:35 PM EST
Astronomical Twilight 6:30 AM EST 7:08 PM EST
Moon 3:31 AM EST (1/7) 1:40 PM EST (1/7)
Length of Visible Light 10h 22m
Length of Day
9h 20m
Waning Crescent, 23% of the Moon is Illuminated
Jan 7
Waning Crescent
Jan 11
New
Jan 18
First Quarter
Jan 26
Full
Feb 3
Last Quarter

Hourly Weather History & Observations

Time (EST) Temp. Windchill Dew Point Humidity Pressure Visibility Wind Dir Wind Speed Gust Speed Precip Events Conditions
12:53 AM 30.0 °F 22.4 °F 24.1 °F 79% 30.34 in 5.0 mi West 8.1 mph - N/A   Haze
1:10 AM 30.2 °F 21.9 °F 24.8 °F 80% 30.31 in 5.0 mi West 9.2 mph - N/A   Haze
1:53 AM 28.0 °F 21.7 °F 23.0 °F 81% 30.34 in 5.0 mi West 5.8 mph - N/A   Haze
2:39 AM 26.6 °F 20.0 °F 21.2 °F 80% 30.32 in 4.0 mi WSW 5.8 mph - N/A   Haze
2:53 AM 26.1 °F - 21.0 °F 81% 30.36 in 4.0 mi Calm Calm - N/A   Haze
3:53 AM 21.9 °F 17.2 °F 18.0 °F 85% 30.38 in 2.5 mi SW 3.5 mph - N/A   Clear
4:53 AM 21.0 °F 12.4 °F 18.0 °F 88% 30.38 in 3.0 mi SSW 6.9 mph - N/A   Clear
5:13 AM 21.2 °F 12.6 °F 17.6 °F 86% 30.33 in 2.5 mi South 6.9 mph - N/A   Clear
5:53 AM 19.9 °F 13.4 °F 17.1 °F 89% 30.39 in 2.5 mi SSW 4.6 mph - N/A   Clear
6:51 AM 19.4 °F 11.5 °F 15.8 °F 86% 30.36 in 3.0 mi SSW 5.8 mph - N/A   Clear
6:53 AM 19.0 °F 9.0 °F 16.0 °F 88% 30.40 in 3.0 mi SSW 8.1 mph - N/A   Clear
7:17 AM 19.4 °F 10.4 °F 15.8 °F 86% 30.37 in 2.5 mi SSW 6.9 mph - N/A   Clear
7:29 AM 19.4 °F 9.5 °F 15.8 °F 86% 30.37 in 3.0 mi SSW 8.1 mph - N/A   Clear
7:53 AM 19.9 °F 9.3 °F 16.0 °F 85% 30.41 in 3.0 mi South 9.2 mph - N/A   Clear
8:15 AM 19.4 °F 9.5 °F 15.8 °F 86% 30.37 in 2.5 mi SSW 8.1 mph - N/A   Clear
8:32 AM 19.4 °F 9.5 °F 15.8 °F 86% 30.37 in 3.0 mi SSW 8.1 mph - N/A   Clear
8:53 AM 19.9 °F 9.3 °F 17.1 °F 89% 30.40 in 3.0 mi South 9.2 mph - N/A   Clear
10:53 AM 27.0 °F 16.1 °F 19.9 °F 75% 30.40 in 7.0 mi SSW 12.7 mph - N/A   Clear
11:53 AM 30.0 °F 18.7 °F 21.9 °F 72% 30.37 in 9.0 mi SSW 16.1 mph 21.9 mph N/A   Clear
12:53 PM 32.0 °F 21.2 °F 23.0 °F 69% 30.32 in 10.0 mi South 16.1 mph 23.0 mph N/A   Clear
2:53 PM 35.1 °F 23.8 °F 23.0 °F 61% 30.26 in 10.0 mi SSW 20.7 mph 25.3 mph N/A   Clear
3:53 PM 34.0 °F 22.7 °F 23.0 °F 64% 30.26 in 10.0 mi SSW 19.6 mph 26.5 mph N/A   Clear
4:53 PM 33.1 °F 23.0 °F 23.0 °F 66% 30.25 in 10.0 mi SSW 15.0 mph - N/A   Clear
6:53 PM 30.9 °F 22.8 °F 21.9 °F 69% 30.24 in 10.0 mi South 9.2 mph - N/A   Clear
7:53 PM 28.9 °F 19.8 °F 21.9 °F 75% 30.22 in 7.0 mi South 10.4 mph - N/A   Clear
8:53 PM 28.9 °F 20.4 °F 21.9 °F 75% 30.20 in 7.0 mi South 9.2 mph - N/A   Clear
9:53 PM 28.9 °F 18.6 °F 21.9 °F 75% 30.18 in 7.0 mi South 12.7 mph - N/A   Clear
10:53 PM 28.9 °F 19.2 °F 21.9 °F 75% 30.18 in 7.0 mi SSW 11.5 mph - N/A   Clear
11:53 PM 28.9 °F 19.8 °F 21.0 °F 72% 30.20 in 7.0 mi SW 10.4 mph - N/A   Clear